Terug naar catalogus

DELTA 1 DEB

ActiefSSO
NORAD 10718·DEBRIS·🇺🇸 United States

Gelanceerd Jul 29, 1976 vanaf Vandenberg Space Force Base

Loading…

Volgende Passages (komende 24 uur)

TLE

VersSource: Space-Track

Epoch: Sep 14, 2026, 13:19 UTC

1 10718U 76077AP  26257.55487512  .00000011  00000-0  38844-3 0  9995
2 10718 101.6051 280.6790 0052186 263.7047 251.8056 12.42899132271879

Volg DELTA 1 DEB in realtime met AllMySat

Download on the App Store